| time (UTC) | temp C | wind direction | speed KPH | gust KPH | rain 1hr cm | rain 24hr cm | rain mn cm | humidity % | barometer mb |
| 20260506051003 | 9 | 204 | 4.8 | 9.7 | 0.00 | 0.00 | 0.00 | 60 | 1015.2 |
| 20260506050512 | 9 | 180 | 4.8 | 9.7 | 0.00 | 0.00 | 0.00 | 60 | 1015.2 |
| 20260506050109 | 9 | 122 | 1.6 | 4.8 | 0.00 | 0.00 | 0.00 | 60 | 1015.1 |
| 20260506045056 | 9 | 113 | 1.6 | 4.8 | 0.00 | 0.00 | 0.00 | 59 | 1014.8 |
| 20260506044603 | 9 | 134 | 1.6 | 4.8 | 0.00 | 0.00 | 0.00 | 58 | 1014.9 |
| 20260506044005 | 9 | 159 | 0.0 | 9.7 | 0.00 | 0.00 | 0.00 | 58 | 1014.9 |
| 20260506043601 | 9 | 149 | 4.8 | 9.7 | 0.00 | 0.00 | 0.00 | 58 | 1014.9 |
| 20260506043002 | 9 | 140 | 4.8 | 9.7 | 0.00 | 0.00 | 0.00 | 58 | 1014.8 |
| 20260506042557 | 9 | 137 | 1.6 | 6.4 | 0.00 | 0.00 | 0.00 | 57 | 1014.8 |
| 20260506042104 | 9 | 184 | 3.2 | 6.4 | 0.00 | 0.00 | 0.00 | 57 | 1014.7 |
| 20260506041556 | 9 | 218 | 1.6 | 9.7 | 0.00 | 0.00 | 0.00 | 57 | 1014.8 |
| 20260506041102 | 9 | 232 | 3.2 | 9.7 | 0.00 | 0.00 | 0.00 | 57 | 1014.7 |
| 20260506040504 | 9 | 216 | 1.6 | 8.0 | 0.00 | 0.00 | 0.00 | 57 | 1014.6 |
| 20260506040010 | 9 | 244 | 3.2 | 8.0 | 0.00 | 0.00 | 0.00 | 57 | 1014.6 |
| 20260506035606 | 10 | 269 | 3.2 | 11.3 | 0.00 | 0.00 | 0.00 | 58 | 1014.6 |
| 20260506035004 | 10 | 230 | 1.6 | 14.5 | 0.00 | 0.00 | 0.00 | 59 | 1014.5 |
| 20260506034511 | 10 | 268 | 4.8 | 22.5 | 0.00 | 0.00 | 0.00 | 59 | 1014.4 |
| 20260506034003 | 10 | 179 | 11.3 | 20.9 | 0.00 | 0.00 | 0.00 | 59 | 1014.2 |
| 20260506033509 | 9 | 159 | 11.3 | 22.5 | 0.00 | 0.00 | 0.00 | 59 | 1013.8 |
| 20260506033121 | 9 | 172 | 11.3 | 19.3 | 0.00 | 0.00 | 0.00 | 59 | 1013.6 |
| 20260506032506 | 9 | 172 | 14.5 | 25.7 | 0.00 | 0.00 | 0.00 | 59 | 1013.5 |
| 20260506032101 | 9 | 187 | 14.5 | 25.7 | 0.00 | 0.00 | 0.00 | 60 | 1013.4 |
| 20260506031553 | 9 | 178 | 16.1 | 25.7 | 0.00 | 0.00 | 0.00 | 60 | 1013.4 |
| 20260506031102 | 10 | 192 | 12.9 | 20.9 | 0.00 | 0.00 | 0.00 | 60 | 1013.3 |
| 20260506030606 | 10 | 209 | 11.3 | 19.3 | 0.00 | 0.00 | 0.00 | 59 | 1013.1 |
| 20260506030008 | 10 | 201 | 12.9 | 20.9 | 0.00 | 0.00 | 0.00 | 56 | 1012.9 |
| 20260506025605 | 10 | 167 | 9.7 | 19.3 | 0.00 | 0.00 | 0.00 | 54 | 1012.9 |
| 20260506025007 | 10 | 163 | 11.3 | 33.8 | 0.00 | 0.00 | 0.00 | 54 | 1013.0 |
| 20260506024616 | 10 | 196 | 12.9 | 33.8 | 0.00 | 0.00 | 0.00 | 54 | 1012.9 |
| 20260506024005 | 10 | 179 | 17.7 | 33.8 | 0.00 | 0.00 | 0.00 | 50 | 1012.6 |
| 20260506023600 | 11 | 176 | 22.5 | 33.8 | 0.00 | 0.00 | 0.00 | 48 | 1012.4 |
| 20260506023107 | 11 | 179 | 19.3 | 29.0 | 0.00 | 0.00 | 0.00 | 48 | 1012.8 |
| 20260506022557 | 11 | 221 | 14.5 | 33.8 | 0.00 | 0.00 | 0.00 | 45 | 1012.8 |
| 20260506022046 | 10 | 230 | 16.1 | 32.2 | 0.00 | 0.00 | 0.00 | 49 | 1013.0 |
| 20260506021559 | 9 | 199 | 12.9 | 30.6 | 0.00 | 0.00 | 0.00 | 63 | 1013.1 |
| 20260506021104 | 9 | 159 | 17.7 | 32.2 | 0.00 | 0.00 | 0.00 | 66 | 1013.0 |
| 20260506020505 | 9 | 180 | 20.9 | 33.8 | 0.00 | 0.00 | 0.00 | 66 | 1012.9 |
| 20260506020012 | 10 | 198 | 19.3 | 27.4 | 0.00 | 0.00 | 0.00 | 62 | 1013.0 |
| 20260506015503 | 10 | 209 | 14.5 | 25.7 | 0.00 | 0.00 | 0.00 | 59 | 1013.1 |
| 20260506015010 | 10 | 227 | 11.3 | 24.1 | 0.00 | 0.00 | 0.00 | 56 | 1013.1 |
| 20260506014603 | 10 | 167 | 9.7 | 20.9 | 0.00 | 0.00 | 0.00 | 54 | 1013.2 |
| 20260506014004 | 11 | 240 | 12.9 | 30.6 | 0.00 | 0.00 | 0.00 | 53 | 1013.3 |
| 20260506013600 | 11 | 202 | 11.3 | 30.6 | 0.00 | 0.00 | 0.00 | 52 | 1013.1 |
| 20260506013002 | 11 | 198 | 16.1 | 32.2 | 0.00 | 0.00 | 0.00 | 54 | 1013.1 |
| 20260506012509 | 11 | 196 | 16.1 | 33.8 | 0.00 | 0.00 | 0.00 | 54 | 1012.9 |
| 20260506012104 | 11 | 194 | 16.1 | 29.0 | 0.00 | 0.00 | 0.00 | 54 | 1012.9 |
| 20260506011521 | 11 | 188 | 14.5 | 37.0 | 0.00 | 0.00 | 0.00 | 53 | 1012.8 |
| 20260506011103 | 11 | 178 | 17.7 | 37.0 | 0.00 | 0.00 | 0.00 | 52 | 1012.7 |
| 20260506010504 | 12 | 200 | 24.1 | 37.0 | 0.00 | 0.00 | 0.00 | 50 | 1012.6 |
| 20260506010120 | 12 | 164 | 16.1 | 32.2 | 0.00 | 0.00 | 0.00 | 52 | 1012.5 |
| 20260506005551 | 12 | 162 | 19.3 | 33.8 | 0.00 | 0.00 | 0.00 | 53 | 1012.3 |
| 20260506005101 | 12 | 162 | 19.3 | 33.8 | 0.00 | 0.00 | 0.00 | 53 | 1012.3 |
| 20260506004549 | 12 | 160 | 20.9 | 33.8 | 0.00 | 0.00 | 0.00 | 51 | 1012.1 |
| 20260506004055 | 12 | 182 | 14.5 | 30.6 | 0.00 | 0.00 | 0.00 | 48 | 1012.1 |
| 20260506003601 | 12 | 173 | 17.7 | 30.6 | 0.00 | 0.00 | 0.00 | 48 | 1012.0 |
| 20260506003004 | 12 | 194 | 14.5 | 27.4 | 0.00 | 0.00 | 0.00 | 45 | 1011.8 |
| 20260506002559 | 12 | 173 | 16.1 | 27.4 | 0.00 | 0.00 | 0.00 | 47 | 1011.9 |
| 20260506002002 | 12 | 210 | 17.7 | 40.2 | 0.00 | 0.00 | 0.00 | 50 | 1011.9 |
| 20260506001601 | 12 | 163 | 19.3 | 40.2 | 0.00 | 0.00 | 0.00 | 52 | 1011.7 |
| 20260506001104 | 12 | 206 | 12.9 | 29.0 | 0.00 | 0.00 | 0.00 | 41 | 1011.8 |
| 20260506000558 | 12 | 160 | 11.3 | 27.4 | 0.00 | 0.00 | 0.00 | 45 | 1011.8 |
| 20260506000054 | 12 | 178 | 14.5 | 32.2 | 0.00 | 0.00 | 0.00 | 45 | 1011.8 |
| 20260505235552 | 13 | 194 | 16.1 | 32.2 | 0.00 | 0.00 | 0.00 | 45 | 1011.9 |
| 20260505235059 | 13 | 205 | 16.1 | 37.0 | 0.00 | 0.00 | 0.00 | 44 | 1011.9 |
| 20260505234502 | 13 | 212 | 20.9 | 37.0 | 0.00 | 0.00 | 0.00 | 42 | 1011.7 |
| 20260505234012 | 14 | 188 | 16.1 | 33.8 | 0.00 | 0.00 | 0.00 | 42 | 1011.7 |
| 20260505233604 | 15 | 200 | 16.1 | 32.2 | 0.00 | 0.00 | 0.00 | 39 | 1011.8 |
| 20260505233051 | 15 | 203 | 17.7 | 32.2 | 0.00 | 0.00 | 0.00 | 39 | 1011.6 |
| 20260505232542 | 15 | 223 | 19.3 | 35.4 | 0.00 | 0.00 | 0.00 | 36 | 1011.4 |
| 20260505232050 | 16 | 178 | 14.5 | 35.4 | 0.00 | 0.00 | 0.00 | 35 | 1011.5 |
| 20260505231556 | 16 | 152 | 12.9 | 35.4 | 0.00 | 0.00 | 0.00 | 33 | 1011.4 |
| 20260505231103 | 16 | 148 | 16.1 | 29.0 | 0.00 | 0.00 | 0.00 | 33 | 1011.3 |
| 20260505230555 | 17 | 188 | 17.7 | 27.4 | 0.00 | 0.00 | 0.00 | 31 | 1011.3 |
| 20260505225553 | 17 | 219 | 4.8 | 24.1 | 0.00 | 0.00 | 0.00 | 28 | 1011.2 |
| 20260505225100 | 17 | 222 | 6.4 | 19.3 | 0.00 | 0.00 | 0.00 | 28 | 1011.1 |
| 20260505224605 | 17 | 222 | 8.0 | 17.7 | 0.00 | 0.00 | 0.00 | 27 | 1011.3 |
| 20260505224007 | 17 | 280 | 8.0 | 20.9 | 0.00 | 0.00 | 0.00 | 27 | 1011.2 |
| 20260505223603 | 17 | 225 | 3.2 | 20.9 | 0.00 | 0.00 | 0.00 | 28 | 1011.3 |
| 20260505223015 | 17 | 167 | 8.0 | 16.1 | 0.00 | 0.00 | 0.00 | 29 | 1011.5 |
| 20260505222605 | 17 | 182 | 8.0 | 16.1 | 0.00 | 0.00 | 0.00 | 30 | 1011.7 |
| 20260505222005 | 17 | 272 | 4.8 | 17.7 | 0.00 | 0.00 | 0.00 | 30 | 1011.7 |
| 20260505221605 | 17 | 221 | 6.4 | 17.7 | 0.00 | 0.00 | 0.00 | 31 | 1011.8 |
| 20260505221104 | 17 | 236 | 11.3 | 19.3 | 0.00 | 0.00 | 0.00 | 30 | 1011.7 |
| 20260505220505 | 18 | 198 | 8.0 | 17.7 | 0.00 | 0.00 | 0.00 | 30 | 1011.8 |
| 20260505220056 | 18 | 187 | 3.2 | 14.5 | 0.00 | 0.00 | 0.00 | 30 | 1011.9 |
| 20260505215554 | 18 | 244 | 8.0 | 25.7 | 0.00 | 0.00 | 0.00 | 31 | 1011.9 |
| 20260505215100 | 18 | 250 | 9.7 | 27.4 | 0.00 | 0.00 | 0.00 | 30 | 1012.0 |
| 20260505214508 | 18 | 232 | 12.9 | 25.7 | 0.00 | 0.00 | 0.00 | 30 | 1012.0 |
| 20260505214008 | 18 | 219 | 11.3 | 22.5 | 0.00 | 0.00 | 0.00 | 30 | 1012.1 |
| 20260505213512 | 18 | 185 | 9.7 | 25.7 | 0.00 | 0.00 | 0.00 | 30 | 1012.0 |
| 20260505213003 | 18 | 188 | 16.1 | 25.7 | 0.00 | 0.00 | 0.00 | 29 | 1012.1 |
| 20260505212557 | 18 | 223 | 8.0 | 20.9 | 0.00 | 0.00 | 0.00 | 29 | 1012.2 |
| 20260505212001 | 18 | 180 | 14.5 | 20.9 | 0.00 | 0.00 | 0.00 | 28 | 1012.3 |
| 20260505211556 | 19 | 264 | 4.8 | 17.7 | 0.00 | 0.00 | 0.00 | 28 | 1012.4 |
| 20260505211103 | 19 | 196 | 9.7 | 19.3 | 0.00 | 0.00 | 0.00 | 27 | 1012.3 |
| 20260505210553 | 19 | 209 | 12.9 | 19.3 | 0.00 | 0.00 | 0.00 | 28 | 1012.5 |
| 20260505210049 | 19 | 217 | 6.4 | 29.0 | 0.00 | 0.00 | 0.00 | 25 | 1012.5 |
| 20260505205551 | 19 | 311 | 8.0 | 29.0 | 0.00 | 0.00 | 0.00 | 26 | 1012.6 |
| 20260505205057 | 18 | 281 | 14.5 | 27.4 | 0.00 | 0.00 | 0.00 | 25 | 1012.6 |
| 20260505204612 | 19 | 309 | 6.4 | 22.5 | 0.00 | 0.00 | 0.00 | 25 | 1012.7 |
| 20260505204056 | 20 | 311 | 16.1 | 22.5 | 0.00 | 0.00 | 0.00 | 24 | 1012.7 |
| 20260505203603 | 20 | 220 | 9.7 | 19.3 | 0.00 | 0.00 | 0.00 | 24 | 1012.8 |
| 20260505203005 | 19 | 256 | 9.7 | 17.7 | 0.00 | 0.00 | 0.00 | 26 | 1012.7 |
| 20260505202512 | 18 | 205 | 6.4 | 19.3 | 0.00 | 0.00 | 0.00 | 26 | 1012.9 |
| 20260505202003 | 18 | 277 | 4.8 | 29.0 | 0.00 | 0.00 | 0.00 | 27 | 1013.0 |
| 20260505201512 | 18 | 294 | 4.8 | 25.7 | 0.00 | 0.00 | 0.00 | 27 | 1013.1 |
| 20260505201001 | 17 | 103 | 11.3 | 25.7 | 0.00 | 0.00 | 0.00 | 28 | 1013.0 |
| 20260505200507 | 18 | 208 | 11.3 | 22.5 | 0.00 | 0.00 | 0.00 | 27 | 1013.2 |
| 20260505195502 | 18 | 296 | 6.4 | 17.7 | 0.00 | 0.00 | 0.00 | 26 | 1013.4 |
| 20260505195010 | 18 | 230 | 4.8 | 17.7 | 0.00 | 0.00 | 0.00 | 26 | 1013.5 |
| 20260505194501 | 18 | 123 | 3.2 | 17.7 | 0.00 | 0.00 | 0.00 | 26 | 1013.5 |
| 20260505194013 | 18 | 207 | 3.2 | 20.9 | 0.00 | 0.00 | 0.00 | 24 | 1013.6 |
| 20260505193607 | 19 | 196 | 11.3 | 27.4 | 0.00 | 0.00 | 0.00 | 24 | 1013.7 |
| 20260505193005 | 19 | 188 | 8.0 | 27.4 | 0.00 | 0.00 | 0.00 | 25 | 1013.7 |
| 20260505192600 | 18 | 250 | 3.2 | 27.4 | 0.00 | 0.00 | 0.00 | 24 | 1013.7 |
| 20260505192103 | 20 | 173 | 8.0 | 27.4 | 0.00 | 0.00 | 0.00 | 23 | 1013.7 |
| 20260505191506 | 20 | 212 | 11.3 | 19.3 | 0.00 | 0.00 | 0.00 | 23 | 1013.7 |
| 20260505191103 | 19 | 213 | 4.8 | 19.3 | 0.00 | 0.00 | 0.00 | 23 | 1013.8 |
| 20260505190506 | 18 | 169 | 1.6 | 25.7 | 0.00 | 0.00 | 0.00 | 23 | 1013.8 |
| 20260505190011 | 18 | 166 | 3.2 | 29.0 | 0.00 | 0.00 | 0.00 | 23 | 1013.8 |
| 20260505185518 | 18 | 187 | 17.7 | 40.2 | 0.00 | 0.00 | 0.00 | 24 | 1013.8 |
| 20260505185027 | 17 | 211 | 8.0 | 40.2 | 0.00 | 0.00 | 0.00 | 24 | 1013.8 |
| 20260505184532 | 17 | 284 | 3.2 | 16.1 | 0.00 | 0.00 | 0.00 | 24 | 1013.9 |
| 20260505184041 | 17 | 309 | 3.2 | 16.1 | 0.00 | 0.00 | 0.00 | 24 | 1014.0 |
| 20260505183550 | 17 | 277 | 6.4 | 19.3 | 0.00 | 0.00 | 0.00 | 24 | 1014.1 |
| 20260505183047 | 17 | 298 | 4.8 | 19.3 | 0.00 | 0.00 | 0.00 | 24 | 1014.1 |
| 20260505182543 | 17 | 303 | 9.7 | 16.1 | 0.00 | 0.00 | 0.00 | 25 | 1014.1 |
| 20260505182049 | 17 | 220 | 1.6 | 11.3 | 0.00 | 0.00 | 0.00 | 24 | 1014.1 |
| 20260505181600 | 16 | 144 | 4.8 | 19.3 | 0.00 | 0.00 | 0.00 | 24 | 1014.0 |
| 20260505181103 | 16 | 294 | 3.2 | 20.9 | 0.00 | 0.00 | 0.00 | 25 | 1014.2 |
| 20260505180505 | 16 | 273 | 4.8 | 19.3 | 0.00 | 0.00 | 0.00 | 25 | 1014.2 |
| 20260505180027 | 16 | 282 | 9.7 | 20.9 | 0.00 | 0.00 | 0.00 | 25 | 1014.2 |
| 20260505175534 | 16 | 254 | 12.9 | 20.9 | 0.00 | 0.00 | 0.00 | 25 | 1014.3 |
| 20260505175038 | 16 | 285 | 3.2 | 20.9 | 0.00 | 0.00 | 0.00 | 24 | 1014.2 |
| 20260505174546 | 16 | 304 | 9.7 | 20.9 | 0.00 | 0.00 | 0.00 | 24 | 1014.3 |
| 20260505174038 | 16 | 300 | 8.0 | 20.9 | 0.00 | 0.00 | 0.00 | 25 | 1014.1 |
| 20260505173545 | 16 | 298 | 9.7 | 20.9 | 0.00 | 0.00 | 0.00 | 25 | 1014.1 |
| 20260505173034 | 16 | 338 | 11.3 | 20.9 | 0.00 | 0.00 | 0.00 | 25 | 1014.2 |
| 20260505172540 | 16 | 275 | 9.7 | 22.5 | 0.00 | 0.00 | 0.00 | 25 | 1014.3 |
| 20260505172046 | 16 | 214 | 8.0 | 22.5 | 0.00 | 0.00 | 0.00 | 24 | 1014.2 |
| 20260505171536 | 16 | 209 | 8.0 | 16.1 | 0.00 | 0.00 | 0.00 | 24 | 1014.2 |
| 20260505171042 | 16 | 218 | 4.8 | 16.1 | 0.00 | 0.00 | 0.00 | 25 | 1014.1 |
| 20260505170547 | 16 | 290 | 4.8 | 20.9 | 0.00 | 0.00 | 0.00 | 24 | 1014.2 |
| 20260505170054 | 15 | 294 | 12.9 | 20.9 | 0.00 | 0.00 | 0.00 | 25 | 1014.1 |
| 20260505165545 | 15 | 299 | 11.3 | 19.3 | 0.00 | 0.00 | 0.00 | 25 | 1014.0 |
| 20260505165051 | 16 | 306 | 11.3 | 19.3 | 0.00 | 0.00 | 0.00 | 24 | 1014.0 |
| 20260505164602 | 16 | 271 | 8.0 | 20.9 | 0.00 | 0.00 | 0.00 | 24 | 1014.0 |
| 20260505164105 | 16 | 311 | 9.7 | 17.7 | 0.00 | 0.00 | 0.00 | 24 | 1014.0 |
| 20260505163508 | 15 | 304 | 8.0 | 17.7 | 0.00 | 0.00 | 0.00 | 25 | 1013.9 |
| 20260505163014 | 15 | 285 | 4.8 | 17.7 | 0.00 | 0.00 | 0.00 | 25 | 1013.9 |
| 20260505162504 | 15 | 346 | 8.0 | 24.1 | 0.00 | 0.00 | 0.00 | 25 | 1014.1 |
| 20260505162012 | 15 | 325 | 4.8 | 24.1 | 0.00 | 0.00 | 0.00 | 27 | 1014.1 |
| 20260505161504 | 15 | 337 | 8.0 | 27.4 | 0.00 | 0.00 | 0.00 | 26 | 1014.2 |
| 20260505161009 | 14 | 296 | 16.1 | 27.4 | 0.00 | 0.00 | 0.00 | 26 | 1014.4 |
| 20260505160601 | 14 | 290 | 8.0 | 20.9 | 0.00 | 0.00 | 0.00 | 27 | 1014.3 |
| 20260505153120 | 12 | 296 | 6.4 | 14.5 | 0.00 | 0.00 | 0.00 | 32 | 1014.5 |
| 20260505152558 | 12 | 267 | 6.4 | 14.5 | 0.00 | 0.00 | 0.00 | 32 | 1014.6 |
| 20260505152106 | 12 | 281 | 9.7 | 14.5 | 0.00 | 0.00 | 0.00 | 33 | 1014.7 |
| 20260505151554 | 12 | 311 | 4.8 | 12.9 | 0.00 | 0.00 | 0.00 | 32 | 1014.6 |
| 20260505151101 | 12 | 306 | 6.4 | 12.9 | 0.00 | 0.00 | 0.00 | 33 | 1014.6 |
| 20260505150553 | 13 | 360 | 8.0 | 14.5 | 0.00 | 0.00 | 0.00 | 30 | 1014.6 |
| 20260505140501 | 11 | 277 | 3.2 | 8.0 | 0.00 | 0.00 | 0.00 | 39 | 1014.9 |
| 20260505140108 | 11 | 284 | 3.2 | 11.3 | 0.00 | 0.00 | 0.00 | 39 | 1015.0 |
| 20260505124504 | 10 | 290 | 6.4 | 14.5 | 0.00 | 0.00 | 0.00 | 42 | 1015.1 |
| 20260505124058 | 10 | 311 | 3.2 | 14.5 | 0.00 | 0.00 | 0.00 | 42 | 1015.3 |
| 20260505123502 | 10 | 313 | 6.4 | 14.5 | 0.00 | 0.00 | 0.00 | 42 | 1015.2 |
| 20260505123100 | 10 | 288 | 6.4 | 12.9 | 0.00 | 0.00 | 0.00 | 42 | 1015.2 |
| 20260505122606 | 10 | 304 | 4.8 | 17.7 | 0.00 | 0.00 | 0.00 | 42 | 1015.1 |
| 20260505122054 | 10 | 265 | 9.7 | 17.7 | 0.00 | 0.00 | 0.00 | 42 | 1015.0 |
| 20260505121545 | 10 | 300 | 6.4 | 12.9 | 0.00 | 0.00 | 0.00 | 42 | 1015.0 |
| 20260505121053 | 10 | 294 | 4.8 | 14.5 | 0.00 | 0.00 | 0.00 | 42 | 1015.1 |
| 20260505120542 | 10 | 294 | 6.4 | 14.5 | 0.00 | 0.00 | 0.00 | 43 | 1015.1 |
| 20260505120100 | 10 | 325 | 4.8 | 11.3 | 0.00 | 0.00 | 0.00 | 42 | 1015.2 |
| 20260505115554 | 10 | 296 | 3.2 | 6.4 | 0.00 | 0.00 | 0.00 | 42 | 1015.2 |
| 20260505115103 | 10 | 306 | 3.2 | 9.7 | 0.00 | 0.00 | 0.00 | 41 | 1015.2 |
| 20260505114504 | 11 | 305 | 4.8 | 16.1 | 0.00 | 0.00 | 0.00 | 41 | 1015.2 |
| 20260505114011 | 11 | 273 | 8.0 | 16.1 | 0.00 | 0.00 | 0.00 | 41 | 1015.1 |
| 20260505113503 | 11 | 304 | 9.7 | 17.7 | 0.00 | 0.00 | 0.00 | 41 | 1015.0 |
| 20260505113009 | 11 | 271 | 9.7 | 17.7 | 0.00 | 0.00 | 0.00 | 41 | 1015.0 |
| 20260505112606 | 11 | 294 | 9.7 | 16.1 | 0.00 | 0.00 | 0.00 | 41 | 1015.1 |
| 20260505112055 | 11 | 257 | 6.4 | 17.7 | 0.00 | 0.00 | 0.00 | 40 | 1015.1 |
| 20260505111603 | 11 | 261 | 6.4 | 12.9 | 0.00 | 0.00 | 0.00 | 40 | 1015.1 |
| 20260505111010 | 11 | 297 | 4.8 | 11.3 | 0.00 | 0.00 | 0.00 | 39 | 1015.0 |
| 20260505110513 | 11 | 242 | 1.6 | 12.9 | 0.00 | 0.00 | 0.00 | 39 | 1015.0 |
| 20260505102009 | 11 | 282 | 6.4 | 11.3 | 0.00 | 0.00 | 0.00 | 35 | 1015.0 |
| 20260505101605 | 11 | 282 | 4.8 | 9.7 | 0.00 | 0.00 | 0.00 | 35 | 1015.0 |
| 20260505101008 | 11 | 286 | 3.2 | 12.9 | 0.00 | 0.00 | 0.00 | 35 | 1015.1 |
| 20260505100513 | 11 | 272 | 4.8 | 12.9 | 0.00 | 0.00 | 0.00 | 35 | 1015.0 |
| 20260505100104 | 11 | 293 | 4.8 | 12.9 | 0.00 | 0.00 | 0.00 | 35 | 1014.9 |
| 20260505095502 | 12 | 272 | 4.8 | 16.1 | 0.00 | 0.00 | 0.00 | 35 | 1014.9 |
| 20260505095007 | 12 | 287 | 8.0 | 16.1 | 0.00 | 0.00 | 0.00 | 35 | 1014.7 |
| 20260505094603 | 12 | 302 | 8.0 | 17.7 | 0.00 | 0.00 | 0.00 | 35 | 1014.8 |
| 20260505094003 | 12 | 246 | 9.7 | 19.3 | 0.00 | 0.00 | 0.00 | 34 | 1014.9 |
| 20260505093511 | 12 | 292 | 9.7 | 22.5 | 0.00 | 0.00 | 0.00 | 34 | 1014.8 |
| 20260505093017 | 12 | 289 | 11.3 | 22.5 | 0.00 | 0.00 | 0.00 | 34 | 1014.8 |
| 20260505092522 | 12 | 321 | 11.3 | 22.5 | 0.00 | 0.00 | 0.00 | 34 | 1014.8 |
| 20260505092029 | 12 | 286 | 9.7 | 22.5 | 0.00 | 0.00 | 0.00 | 34 | 1014.7 |
| 20260505091534 | 12 | 273 | 12.9 | 20.9 | 0.00 | 0.00 | 0.00 | 34 | 1014.7 |
| 20260505091041 | 12 | 260 | 9.7 | 29.0 | 0.00 | 0.00 | 0.00 | 33 | 1014.8 |
| 20260505090548 | 12 | 291 | 12.9 | 25.7 | 0.00 | 0.00 | 0.00 | 33 | 1014.7 |
| 20260505090039 | 12 | 292 | 14.5 | 24.1 | 0.00 | 0.00 | 0.00 | 33 | 1014.9 |
| 20260505085547 | 12 | 273 | 9.7 | 19.3 | 0.00 | 0.00 | 0.00 | 33 | 1014.8 |
| 20260505085057 | 12 | 301 | 8.0 | 22.5 | 0.00 | 0.00 | 0.00 | 33 | 1015.0 |
| 20260505084602 | 12 | 200 | 11.3 | 22.5 | 0.00 | 0.00 | 0.00 | 33 | 1015.0 |
| 20260505084054 | 12 | 306 | 9.7 | 20.9 | 0.00 | 0.00 | 0.00 | 33 | 1015.0 |
| 20260505083600 | 12 | 265 | 12.9 | 22.5 | 0.00 | 0.00 | 0.00 | 32 | 1015.0 |
| 20260505083105 | 12 | 298 | 11.3 | 22.5 | 0.00 | 0.00 | 0.00 | 32 | 1015.1 |
| 20260505082508 | 12 | 273 | 11.3 | 25.7 | 0.00 | 0.00 | 0.00 | 31 | 1015.0 |
| 20260505082014 | 12 | 281 | 12.9 | 25.7 | 0.00 | 0.00 | 0.00 | 31 | 1015.1 |
| 20260505081521 | 12 | 279 | 8.0 | 17.7 | 0.00 | 0.00 | 0.00 | 31 | 1015.2 |
| 20260505081029 | 13 | 272 | 9.7 | 19.3 | 0.00 | 0.00 | 0.00 | 30 | 1015.2 |
| 20260505080533 | 13 | 244 | 9.7 | 19.3 | 0.00 | 0.00 | 0.00 | 29 | 1015.2 |
| 20260505080039 | 13 | 270 | 11.3 | 22.5 | 0.00 | 0.00 | 0.00 | 28 | 1015.3 |
| 20260505075544 | 13 | 291 | 14.5 | 22.5 | 0.00 | 0.00 | 0.00 | 28 | 1015.1 |
| 20260505075050 | 13 | 280 | 9.7 | 16.1 | 0.00 | 0.00 | 0.00 | 27 | 1015.2 |
| 20260505074555 | 13 | 255 | 8.0 | 17.7 | 0.00 | 0.00 | 0.00 | 26 | 1015.3 |
| 20260505074046 | 13 | 315 | 8.0 | 24.1 | 0.00 | 0.00 | 0.00 | 26 | 1015.2 |
| 20260505073554 | 13 | 284 | 11.3 | 24.1 | 0.00 | 0.00 | 0.00 | 26 | 1015.2 |
| 20260505073043 | 13 | 260 | 12.9 | 27.4 | 0.00 | 0.00 | 0.00 | 25 | 1015.3 |
| 20260505072551 | 13 | 279 | 9.7 | 24.1 | 0.00 | 0.00 | 0.00 | 25 | 1015.2 |
| 20260505072057 | 13 | 259 | 11.3 | 29.0 | 0.00 | 0.00 | 0.00 | 25 | 1015.4 |
| 20260505071548 | 13 | 260 | 11.3 | 29.0 | 0.00 | 0.00 | 0.00 | 25 | 1015.4 |
| 20260505071056 | 13 | 305 | 8.0 | 20.9 | 0.00 | 0.00 | 0.00 | 24 | 1015.4 |
| 20260505070602 | 13 | 324 | 11.3 | 24.1 | 0.00 | 0.00 | 0.00 | 24 | 1015.3 |
| 20260505070005 | 13 | 258 | 12.9 | 24.1 | 0.00 | 0.00 | 0.00 | 23 | 1015.4 |
| 20260505065601 | 13 | 273 | 12.9 | 17.7 | 0.00 | 0.00 | 0.00 | 23 | 1015.4 |
| 20260505065004 | 13 | 273 | 6.4 | 12.9 | 0.00 | 0.00 | 0.00 | 22 | 1015.4 |
| 20260505064602 | 13 | 288 | 4.8 | 14.5 | 0.00 | 0.00 | 0.00 | 22 | 1015.3 |
| 20260505064105 | 13 | 257 | 4.8 | 14.5 | 0.00 | 0.00 | 0.00 | 22 | 1015.2 |
| 20260505063556 | 13 | 265 | 4.8 | 14.5 | 0.00 | 0.00 | 0.00 | 21 | 1015.2 |
| 20260505063047 | 13 | 279 | 6.4 | 14.5 | 0.00 | 0.00 | 0.00 | 22 | 1015.1 |
| 20260505062555 | 13 | 270 | 6.4 | 12.9 | 0.00 | 0.00 | 0.00 | 22 | 1015.1 |
| 20260505062100 | 13 | 265 | 4.8 | 12.9 | 0.00 | 0.00 | 0.00 | 21 | 1015.1 |
| 20260505061505 | 13 | 276 | 4.8 | 14.5 | 0.00 | 0.00 | 0.00 | 20 | 1015.0 |
| 20260505061059 | 13 | 271 | 6.4 | 14.5 | 0.00 | 0.00 | 0.00 | 20 | 1015.1 |
| 20260505060503 | 13 | 286 | 6.4 | 11.3 | 0.00 | 0.00 | 0.00 | 20 | 1014.9 |
| 20260505060040 | 14 | 281 | 6.4 | 17.7 | 0.00 | 0.00 | 0.00 | 20 | 1014.9 |
| 20260505055547 | 14 | 284 | 6.4 | 17.7 | 0.00 | 0.00 | 0.00 | 20 | 1015.0 |
| 20260505055055 | 14 | 267 | 8.0 | 17.7 | 0.00 | 0.00 | 0.00 | 20 | 1015.0 |
| 20260505054600 | 14 | 281 | 8.0 | 16.1 | 0.00 | 0.00 | 0.00 | 19 | 1014.9 |
| 20260505054053 | 14 | 257 | 4.8 | 17.7 | 0.00 | 0.00 | 0.00 | 19 | 1014.9 |
| 20260505053556 | 14 | 244 | 4.8 | 22.5 | 0.00 | 0.00 | 0.00 | 19 | 1014.9 |
| 20260505053109 | 15 | 176 | 6.4 | 22.5 | 0.00 | 0.00 | 0.00 | 19 | 1014.9 |
| 20260505052538 | 15 | 222 | 8.0 | 19.3 | 0.00 | 0.00 | 0.00 | 19 | 1014.9 |
| 20260505052044 | 15 | 225 | 4.8 | 12.9 | 0.00 | 0.00 | 0.00 | 18 | 1014.9 |
| 20260505051550 | 15 | 224 | 8.0 | 17.7 | 0.00 | 0.00 | 0.00 | 19 | 1015.0 |